Time,TemperatureF,DewpointF,PressureIn,WindDirection,WindDirectionDegrees,WindSpeedMPH,WindSpeedGustMPH,Humidity,HourlyPrecipIn,Conditions,Clouds,dailyrainin,SoftwareType,DateUTC
2013-11-19 00:14:00,72.2,70.0,29.90,ESE,103,0.0,0.0,94,0.00,,,0.00,weatherlink.com 1.10,2013-11-19 05:14:00,
2013-11-19 00:29:00,72.4,71.0,29.90,East,100,0.0,1.0,94,0.00,,,0.00,weatherlink.com 1.10,2013-11-19 05:29:00,
2013-11-19 00:44:00,72.4,71.0,29.89,SW,224,0.0,0.0,94,0.00,,,0.00,weatherlink.com 1.10,2013-11-19 05:44:00,
2013-11-19 00:59:00,72.7,71.0,29.89,SE,136,0.0,0.0,94,0.00,,,0.00,weatherlink.com 1.10,2013-11-19 05:59:00,
2013-11-19 01:14:00,72.7,71.0,29.89,SE,135,0.0,0.0,94,0.00,,,0.00,weatherlink.com 1.10,2013-11-19 06:14:00,
2013-11-19 01:29:00,72.9,71.0,29.89,ESE,109,0.0,0.0,94,0.00,,,0.00,weatherlink.com 1.10,2013-11-19 06:29:00,
2013-11-19 01:44:00,72.8,71.0,29.89,ESE,107,0.0,0.0,94,0.00,,,0.00,weatherlink.com 1.10,2013-11-19 06:44:00,
2013-11-19 01:59:00,72.7,71.0,29.88,SE,132,0.0,0.0,94,0.00,,,0.00,weatherlink.com 1.10,2013-11-19 06:59:00,
2013-11-19 02:14:00,72.6,71.0,29.87,East,101,0.0,0.0,94,0.00,,,0.00,weatherlink.com 1.10,2013-11-19 07:14:00,
2013-11-19 02:29:00,72.2,71.0,29.87,East,101,0.0,0.0,95,0.00,,,0.00,weatherlink.com 1.10,2013-11-19 07:29:00,
2013-11-19 02:44:00,71.9,71.0,29.87,ESE,106,0.0,0.0,95,0.00,,,0.00,weatherlink.com 1.10,2013-11-19 07:44:00,
2013-11-19 02:59:00,71.6,70.0,29.86,ESE,104,0.0,0.0,96,0.00,,,0.00,weatherlink.com 1.10,2013-11-19 07:59:00,
2013-11-19 03:14:00,71.3,70.0,29.86,East,91,0.0,0.0,95,0.00,,,0.00,weatherlink.com 1.10,2013-11-19 08:14:00,
2013-11-19 03:29:00,71.4,70.0,29.86,East,91,0.0,0.0,95,0.00,,,0.00,weatherlink.com 1.10,2013-11-19 08:29:00,
2013-11-19 03:44:00,71.0,70.0,29.86,ESE,102,0.0,0.0,96,0.00,,,0.00,weatherlink.com 1.10,2013-11-19 08:44:00,
2013-11-19 03:59:00,70.7,70.0,29.86,ESE,106,0.0,0.0,96,0.00,,,0.00,weatherlink.com 1.10,2013-11-19 08:59:00,
2013-11-19 04:14:00,70.9,70.0,29.86,ESE,105,0.0,0.0,96,0.00,,,0.00,weatherlink.com 1.10,2013-11-19 09:14:00,
2013-11-19 04:29:00,71.3,70.0,29.86,WSW,239,0.0,0.0,97,0.00,,,0.00,weatherlink.com 1.10,2013-11-19 09:29:00,
2013-11-19 04:44:00,71.8,71.0,29.86,SW,217,0.0,0.0,97,0.00,,,0.00,weatherlink.com 1.10,2013-11-19 09:44:00,
2013-11-19 04:59:00,72.0,71.0,29.86,WSW,239,0.0,0.0,97,0.00,,,0.00,weatherlink.com 1.10,2013-11-19 09:59:00,
2013-11-19 05:14:00,72.2,71.0,29.86,West,278,0.0,1.0,96,0.00,,,0.00,weatherlink.com 1.10,2013-11-19 10:14:00,
2013-11-19 05:29:00,72.4,71.0,29.86,ESE,116,0.0,1.0,96,0.00,,,0.00,weatherlink.com 1.10,2013-11-19 10:29:00,
2013-11-19 05:44:00,72.3,71.0,29.87,WNW,288,0.0,1.0,96,0.00,,,0.00,weatherlink.com 1.10,2013-11-19 10:44:00,
2013-11-19 05:59:00,72.3,71.0,29.87,West,271,0.0,1.0,95,0.00,,,0.00,weatherlink.com 1.10,2013-11-19 10:59:00,
2013-11-19 06:14:00,72.1,71.0,29.88,NW,305,0.0,1.0,95,0.00,,,0.00,weatherlink.com 1.10,2013-11-19 11:14:00,
2013-11-19 06:29:00,72.2,71.0,29.87,West,270,0.0,1.0,96,0.00,,,0.00,weatherlink.com 1.10,2013-11-19 11:29:00,
2013-11-19 06:44:00,72.0,71.0,29.87,WSW,246,0.0,1.0,96,0.00,,,0.00,weatherlink.com 1.10,2013-11-19 11:44:00,
2013-11-19 06:59:00,72.2,71.0,29.88,SSW,200,0.0,0.0,96,0.00,,,0.00,weatherlink.com 1.10,2013-11-19 11:59:00,
2013-11-19 07:14:00,72.2,71.0,29.89,SSW,200,0.0,0.0,96,0.00,,,0.00,weatherlink.com 1.10,2013-11-19 12:14:00,
2013-11-19 07:29:00,72.6,71.0,29.89,East,101,0.0,0.0,96,0.00,,,0.00,weatherlink.com 1.10,2013-11-19 12:29:00,
2013-11-19 07:44:00,73.1,72.0,29.90,West,264,0.0,0.0,96,0.00,,,0.00,weatherlink.com 1.10,2013-11-19 12:44:00,
2013-11-19 07:59:00,73.2,72.0,29.90,WSW,250,0.0,1.0,96,0.00,,,0.00,weatherlink.com 1.10,2013-11-19 12:59:00,
2013-11-19 08:14:00,73.5,72.0,29.91,NW,307,0.0,1.0,96,0.00,,,0.00,weatherlink.com 1.10,2013-11-19 13:14:00,
2013-11-19 08:29:00,73.8,72.0,29.91,NW,305,0.0,2.0,95,0.00,,,0.00,weatherlink.com 1.10,2013-11-19 13:29:00,
2013-11-19 08:44:00,73.8,72.0,29.91,WNW,302,0.0,1.0,95,0.00,,,0.00,weatherlink.com 1.10,2013-11-19 13:44:00,
2013-11-19 08:59:00,74.3,73.0,29.91,NNW,331,0.0,1.0,95,0.00,,,0.00,weatherlink.com 1.10,2013-11-19 13:59:00,
2013-11-19 09:14:00,74.8,73.0,29.92,WNW,290,0.0,0.0,95,0.00,,,0.00,weatherlink.com 1.10,2013-11-19 14:14:00,
2013-11-19 09:29:00,75.2,73.0,29.91,WNW,301,0.0,1.0,94,0.00,,,0.00,weatherlink.com 1.10,2013-11-19 14:29:00,
2013-11-19 09:44:00,76.2,74.0,29.91,NNW,329,0.0,1.0,93,0.00,,,0.00,weatherlink.com 1.10,2013-11-19 14:44:00,
2013-11-19 09:59:00,78.6,75.0,29.92,NE,34,0.0,0.0,87,0.00,,,0.00,weatherlink.com 1.10,2013-11-19 14:59:00,
2013-11-19 10:15:00,79.9,74.0,29.92,West,263,0.0,2.0,83,0.00,,,0.00,weatherlink.com 1.10,2013-11-19 15:15:00,
2013-11-19 10:30:00,80.9,74.0,29.92,NE,42,0.0,3.0,79,0.00,,,0.00,weatherlink.com 1.10,2013-11-19 15:30:00,
2013-11-19 10:45:00,81.5,74.0,29.92,ENE,58,0.0,3.0,78,0.00,,,0.00,weatherlink.com 1.10,2013-11-19 15:45:00,
2013-11-19 11:00:00,81.7,74.0,29.91,ESE,105,0.0,5.0,77,0.00,,,0.00,weatherlink.com 1.10,2013-11-19 16:00:00,
2013-11-19 11:15:00,82.6,74.0,29.91,NE,52,0.0,4.0,76,0.00,,,0.00,weatherlink.com 1.10,2013-11-19 16:15:00,
2013-11-19 11:30:00,83.6,75.0,29.91,WNW,300,0.0,1.0,74,0.00,,,0.00,weatherlink.com 1.10,2013-11-19 16:30:00,
2013-11-19 11:45:00,84.6,74.0,29.90,NW,311,0.0,1.0,71,0.00,,,0.00,weatherlink.com 1.10,2013-11-19 16:45:00,
2013-11-19 12:00:00,84.6,74.0,29.89,West,281,0.0,1.0,70,0.00,,,0.00,weatherlink.com 1.10,2013-11-19 17:00:00,
2013-11-19 12:15:00,84.6,74.0,29.88,NNE,27,0.0,1.0,70,0.00,,,0.00,weatherlink.com 1.10,2013-11-19 17:15:00,
2013-11-19 12:30:00,84.5,74.0,29.87,WNW,296,0.0,0.0,70,0.00,,,0.00,weatherlink.com 1.10,2013-11-19 17:30:00,
2013-11-19 12:45:00,84.4,74.0,29.87,ESE,112,0.0,2.0,70,0.00,,,0.00,weatherlink.com 1.10,2013-11-19 17:45:00,
2013-11-19 13:00:00,84.8,74.0,29.86,WSW,252,0.0,2.0,71,0.00,,,0.00,weatherlink.com 1.10,2013-11-19 18:00:00,
2013-11-19 13:15:00,84.8,74.0,29.86,NW,326,0.0,2.0,70,0.00,,,0.00,weatherlink.com 1.10,2013-11-19 18:15:00,
2013-11-19 13:30:00,84.5,74.0,29.85,WNW,295,0.0,2.0,70,0.00,,,0.00,weatherlink.com 1.10,2013-11-19 18:30:00,
2013-11-19 13:45:00,85.0,74.0,29.85,NE,41,0.0,2.0,70,0.00,,,0.00,weatherlink.com 1.10,2013-11-19 18:45:00,
2013-11-19 14:00:00,85.3,74.0,29.84,NNW,340,0.0,2.0,69,0.00,,,0.00,weatherlink.com 1.10,2013-11-19 19:00:00,
2013-11-19 14:15:00,84.6,73.0,29.84,NE,56,0.0,4.0,69,0.00,,,0.00,weatherlink.com 1.10,2013-11-19 19:15:00,
2013-11-19 14:30:00,83.9,74.0,29.84,NW,321,0.0,0.0,71,0.00,,,0.00,weatherlink.com 1.10,2013-11-19 19:30:00,
2013-11-19 14:45:00,84.3,73.0,29.84,WNW,294,0.0,0.0,69,0.00,,,0.00,weatherlink.com 1.10,2013-11-19 19:45:00,
2013-11-19 15:00:00,85.1,73.0,29.84,NE,41,0.0,1.0,67,0.00,,,0.00,weatherlink.com 1.10,2013-11-19 20:00:00,
2013-11-19 15:15:00,84.0,72.0,29.83,East,98,0.0,0.0,67,0.00,,,0.00,weatherlink.com 1.10,2013-11-19 20:15:00,
2013-11-19 15:30:00,83.7,73.0,29.84,NNE,29,0.0,0.0,69,0.00,,,0.00,weatherlink.com 1.10,2013-11-19 20:30:00,
2013-11-19 15:45:00,82.5,74.0,29.84,East,98,0.0,1.0,76,0.00,,,0.00,weatherlink.com 1.10,2013-11-19 20:45:00,
2013-11-19 16:00:00,81.6,73.0,29.84,NNE,29,0.0,3.0,75,0.00,,,0.00,weatherlink.com 1.10,2013-11-19 21:00:00,
2013-11-19 16:15:00,79.4,73.0,29.85,ENE,70,0.0,4.0,81,0.00,,,0.00,weatherlink.com 1.10,2013-11-19 21:15:00,
2013-11-19 16:30:00,77.7,73.0,29.85,East,101,0.0,7.0,84,0.00,,,0.00,weatherlink.com 1.10,2013-11-19 21:30:00,
2013-11-19 16:45:00,77.0,72.0,29.86,ESE,110,3.0,7.0,83,0.00,,,0.00,weatherlink.com 1.10,2013-11-19 21:45:00,
2013-11-19 17:00:00,76.3,71.0,29.86,East,91,0.0,5.0,84,0.00,,,0.00,weatherlink.com 1.10,2013-11-19 22:00:00,
2013-11-19 17:15:00,75.9,71.0,29.86,East,84,0.0,2.0,85,0.00,,,0.00,weatherlink.com 1.10,2013-11-19 22:15:00,
2013-11-19 17:30:00,75.4,71.0,29.87,East,84,0.0,2.0,86,0.00,,,0.00,weatherlink.com 1.10,2013-11-19 22:30:00,
2013-11-19 17:45:00,75.4,71.0,29.88,ESE,113,0.0,1.0,87,0.00,,,0.00,weatherlink.com 1.10,2013-11-19 22:45:00,
2013-11-19 18:00:00,75.6,72.0,29.88,ENE,72,0.0,1.0,87,0.00,,,0.00,weatherlink.com 1.10,2013-11-19 23:00:00,
2013-11-19 18:15:00,75.5,72.0,29.88,East,87,0.0,1.0,88,0.00,,,0.00,weatherlink.com 1.10,2013-11-19 23:15:00,
2013-11-19 18:30:00,75.0,72.0,29.88,East,81,0.0,1.0,89,0.00,,,0.00,weatherlink.com 1.10,2013-11-19 23:30:00,
2013-11-19 18:45:00,75.0,72.0,29.89,NE,42,0.0,1.0,89,0.00,,,0.00,weatherlink.com 1.10,2013-11-19 23:45:00,
2013-11-19 19:00:00,74.8,72.0,29.89,East,89,0.0,1.0,90,0.00,,,0.00,weatherlink.com 1.10,2013-11-20 00:00:00,
2013-11-19 19:15:00,74.6,72.0,29.89,East,101,0.0,1.0,91,0.00,,,0.00,weatherlink.com 1.10,2013-11-20 00:15:00,
2013-11-19 19:30:00,74.7,72.0,29.90,ESE,106,0.0,1.0,90,0.00,,,0.00,weatherlink.com 1.10,2013-11-20 00:30:00,
2013-11-19 19:45:00,74.3,72.0,29.91,East,91,0.0,0.0,91,0.00,,,0.00,weatherlink.com 1.10,2013-11-20 00:45:00,
2013-11-19 20:00:00,74.1,72.0,29.90,East,96,0.0,1.0,92,0.00,,,0.00,weatherlink.com 1.10,2013-11-20 01:00:00,
2013-11-19 20:15:00,73.9,71.0,29.90,East,96,0.0,0.0,91,0.00,,,0.00,weatherlink.com 1.10,2013-11-20 01:15:00,
2013-11-19 20:30:00,73.6,71.0,29.91,ESE,116,0.0,0.0,92,0.00,,,0.00,weatherlink.com 1.10,2013-11-20 01:30:00,
2013-11-19 20:45:00,73.5,71.0,29.91,ESE,110,0.0,0.0,92,0.00,,,0.00,weatherlink.com 1.10,2013-11-20 01:45:00,
2013-11-19 21:00:00,73.6,72.0,29.91,ESE,115,0.0,0.0,93,0.00,,,0.00,weatherlink.com 1.10,2013-11-20 02:00:00,
2013-11-19 21:16:00,73.3,71.0,29.91,ESE,106,0.0,1.0,93,0.00,,,0.00,weatherlink.com 1.10,2013-11-20 02:16:00,
2013-11-19 21:31:00,72.9,71.0,29.92,NE,54,0.0,0.0,94,0.00,,,0.00,weatherlink.com 1.10,2013-11-20 02:31:00,
2013-11-19 21:46:00,72.9,71.0,29.92,ENE,66,0.0,0.0,95,0.00,,,0.00,weatherlink.com 1.10,2013-11-20 02:46:00,
2013-11-19 22:01:00,72.8,71.0,29.92,ESE,110,0.0,0.0,95,0.00,,,0.00,weatherlink.com 1.10,2013-11-20 03:01:00,
2013-11-19 22:16:00,72.5,71.0,29.92,ESE,104,0.0,1.0,95,0.00,,,0.00,weatherlink.com 1.10,2013-11-20 03:16:00,
2013-11-19 22:31:00,72.5,71.0,29.92,East,94,0.0,0.0,95,0.00,,,0.00,weatherlink.com 1.10,2013-11-20 03:31:00,
2013-11-19 22:46:00,72.0,71.0,29.93,ESE,113,0.0,0.0,95,0.00,,,0.00,weatherlink.com 1.10,2013-11-20 03:46:00,
2013-11-19 23:01:00,72.1,71.0,29.92,ESE,102,1.0,1.0,96,0.00,,,0.00,weatherlink.com 1.10,2013-11-20 04:01:00,
2013-11-19 23:16:00,72.1,71.0,29.92,East,91,0.0,0.0,96,0.00,,,0.00,weatherlink.com 1.10,2013-11-20 04:16:00,
2013-11-19 23:31:00,72.6,71.0,29.92,East,101,0.0,1.0,96,0.00,,,0.00,weatherlink.com 1.10,2013-11-20 04:31:00,
2013-11-19 23:46:00,72.5,71.0,29.92,ESE,120,0.0,1.0,96,0.00,,,0.00,weatherlink.com 1.10,2013-11-20 04:46:00,